Weather History for Gillette, WY

Change the Weather History Date:

Thursday, May 30, 2013

  Actual Average Record
Temperature  
Mean Temperature 47 °F 57 °F  
Max Temperature 49 °F 70 °F 90 °F (1939)
Min Temperature 44 °F 43 °F 31 °F (1979)
Degree Days  
Heating Degree Days 18 9  
Month to date heating degree days 332 377  
Since 1 July heating degree days 7294 7393  
Cooling Degree Days 0 0  
Month to date cooling degree days 8 0  
Year to date cooling degree days 8 0  
Moisture  
Dew Point 45 °F    
Average Humidity 90    
Maximum Humidity 93    
Minimum Humidity 86    
Precipitation  
Precipitation 1.45 in 0.09 in 1.60 in (1937)
Month to date precipitation 3.51 2.36  
Year to date precipitation 6.63 5.57  
Sea Level Pressure  
Sea Level Pressure 29.54 in    
Wind  
Wind Speed 25 mph (WNW)    
Max Wind Speed 39 mph    
Max Gust Speed 48 mph    
Visibility 7 miles    
Events Rain    
T = Trace of Precipitation, MM = Missing Value Source: NWS Daily Summary

Daily Weather History Graph

Daily Weather History Graph

Search for Another Location

Airport:

Trip Planner

Search our weather history database for the weather conditions in past years. The results will help you decide how hot, cold, wet, or windy it might be!

Date:

Astronomy

May. 30, 2013 Rise Set
Actual Time 5:22 AM MDT 8:37 PM MDT
Civil Twilight 4:46 AM MDT 9:13 PM MDT
Nautical Twilight 4:00 AM MDT 9:59 PM MDT
Astronomical Twilight 3:03 AM MDT 10:56 PM MDT
Moon 12:32 AM MDT (5/30) 11:42 AM MDT (5/30)
Length of Visible Light 16h 26m
Length of Day
15h 15m
Waning Gibbous, 61% of the Moon is Illuminated
May 30
Waning Gibbous
May 31
Last Quarter
Jun 8
New
Jun 16
First Quarter
Jun 23
Full

Hourly Weather History & Observations

Time (MDT) Temp. Windchill Dew Point Humidity Pressure Visibility Wind Dir Wind Speed Gust Speed Precip Events Conditions
12:17 AM 50.0 °F - 48.2 °F 94% 29.59 in 10.0 mi WNW 17.3 mph 23.0 mph 0.04 in Rain Light Rain
12:53 AM 50.0 °F - 48.0 °F 93% 29.52 in 10.0 mi WNW 16.1 mph - 0.07 in Rain Light Rain
1:01 AM 48.2 °F - 48.2 °F 100% 29.58 in 10.0 mi WNW 15.0 mph 21.9 mph 0.00 in Rain Light Rain
1:16 AM 48.2 °F - 48.2 °F 100% 29.59 in 10.0 mi WNW 12.7 mph - 0.01 in Rain Light Rain
1:53 AM 48.9 °F - 46.9 °F 93% 29.51 in 10.0 mi WNW 16.1 mph - 0.01 in   Overcast
2:18 AM 48.2 °F - 46.4 °F 93% 29.55 in 10.0 mi WNW 16.1 mph - 0.00 in Rain Light Rain
2:44 AM 48.2 °F - 46.4 °F 93% 29.54 in 8.0 mi WNW 17.3 mph - 0.01 in Rain Light Rain
2:53 AM 48.9 °F - 46.9 °F 93% 29.47 in 8.0 mi WNW 12.7 mph - 0.02 in Rain Light Rain
3:02 AM 48.2 °F - 46.4 °F 93% 29.54 in 9.0 mi WNW 17.3 mph - 0.02 in Rain Light Rain
3:10 AM 48.2 °F - 46.4 °F 93% 29.54 in 9.0 mi WNW 13.8 mph 20.7 mph 0.02 in Rain Light Rain
3:31 AM 48.2 °F - 46.4 °F 93% 29.54 in 7.0 mi WNW 15.0 mph - 0.06 in Rain Light Rain
3:42 AM 48.2 °F - 46.4 °F 93% 29.53 in 7.0 mi WNW 16.1 mph - 0.07 in Rain Light Rain
3:53 AM 48.9 °F - 46.9 °F 93% 29.47 in 8.0 mi NW 18.4 mph 24.2 mph 0.09 in Rain Light Rain
4:02 AM 48.2 °F - 46.4 °F 93% 29.53 in 9.0 mi WNW 19.6 mph - 0.01 in Rain Light Rain
4:10 AM 48.2 °F - 46.4 °F 93% 29.53 in 9.0 mi WNW 17.3 mph 25.3 mph 0.01 in Rain Light Rain
4:53 AM 48.9 °F - 46.9 °F 93% 29.46 in 9.0 mi WNW 19.6 mph - 0.07 in Rain Light Rain
5:00 AM 48.2 °F - 46.4 °F 93% 29.53 in 8.0 mi WNW 17.3 mph 26.5 mph 0.01 in Rain Light Rain
5:14 AM 48.2 °F - 46.4 °F 93% 29.52 in 8.0 mi WNW 15.0 mph - 0.03 in Rain Light Rain
5:37 AM 48.2 °F - 46.4 °F 93% 29.53 in 7.0 mi WNW 17.3 mph - 0.07 in Rain Light Rain
5:50 AM 48.2 °F - 46.4 °F 93% 29.53 in 6.0 mi WNW 17.3 mph 26.5 mph 0.10 in Rain Rain
5:53 AM 48.0 °F - 46.0 °F 93% 29.46 in 5.0 mi WNW 18.4 mph 26.5 mph 0.10 in Rain Rain
6:04 AM 48.2 °F - 46.4 °F 93% 29.53 in 5.0 mi WNW 18.4 mph 25.3 mph 0.02 in Rain Rain
6:29 AM 48.2 °F - 46.4 °F 93% 29.53 in 4.0 mi WNW 19.6 mph 24.2 mph 0.09 in Rain Rain
6:53 AM 48.0 °F - 46.0 °F 93% 29.47 in 5.0 mi WNW 23.0 mph 28.8 mph 0.14 in Rain Light Rain
7:53 AM 48.0 °F - 46.0 °F 93% 29.47 in 6.0 mi WNW 19.6 mph 31.1 mph 0.11 in Rain Light Rain
8:23 AM 48.2 °F - 46.4 °F 93% 29.52 in 6.0 mi WNW 19.6 mph 29.9 mph 0.06 in Rain Light Rain
8:53 AM 48.0 °F - 46.0 °F 93% 29.46 in 6.0 mi WNW 20.7 mph 29.9 mph 0.11 in Rain Light Rain
9:25 AM 48.2 °F - 44.6 °F 87% 29.51 in 5.0 mi WNW 24.2 mph 32.2 mph 0.06 in Rain Light Rain
9:34 AM 48.2 °F - 44.6 °F 87% 29.51 in 6.0 mi WNW 29.9 mph 35.7 mph 0.06 in Rain Light Rain
9:53 AM 48.0 °F - 45.0 °F 89% 29.47 in 5.0 mi WNW 26.5 mph 36.8 mph 0.10 in Rain Light Rain
10:51 AM 48.2 °F - 44.6 °F 87% 29.52 in 5.0 mi WNW 28.8 mph 39.1 mph 0.12 in Rain Rain
10:53 AM 48.0 °F - 45.0 °F 89% 29.47 in 5.0 mi WNW 26.5 mph 39.1 mph 0.12 in Rain Rain
11:01 AM 46.4 °F 37.9 °F 44.6 °F 93% 29.52 in 5.0 mi WNW 25.3 mph 39.1 mph 0.02 in Rain Rain
11:10 AM 46.4 °F 37.9 °F 44.6 °F 93% 29.52 in 5.0 mi WNW 25.3 mph 34.5 mph 0.04 in Rain Rain
11:17 AM 46.4 °F 37.9 °F 44.6 °F 93% 29.52 in 6.0 mi WNW 25.3 mph 34.5 mph 0.06 in Rain Light Rain
11:38 AM 46.4 °F 37.4 °F 44.6 °F 93% 29.52 in 4.0 mi WNW 28.8 mph 39.1 mph 0.09 in Rain Rain
11:53 AM 46.9 °F - 44.1 °F 90% 29.49 in 4.0 mi WNW 26.5 mph 33.4 mph 0.12 in Rain Light Rain
12:53 PM 46.0 °F 36.5 °F 43.0 °F 89% 29.49 in 5.0 mi WNW 31.1 mph 40.3 mph 0.11 in Rain Light Rain
1:37 PM 46.4 °F 37.4 °F 42.8 °F 87% 29.55 in 5.0 mi WNW 28.8 mph 40.3 mph 0.04 in Rain Rain
1:53 PM 46.9 °F - 44.1 °F 90% 29.52 in 4.0 mi WNW 29.9 mph 39.1 mph 0.08 in Rain Light Rain
2:10 PM 46.4 °F 37.0 °F 44.6 °F 93% 29.56 in 6.0 mi WNW 31.1 mph 41.4 mph 0.02 in Rain Light Rain
2:53 PM 46.9 °F - 43.0 °F 86% 29.54 in 8.0 mi WNW 28.8 mph 40.3 mph 0.05 in Rain Light Rain
3:53 PM 46.0 °F 35.9 °F 43.0 °F 89% 29.55 in 6.0 mi WNW 35.7 mph 47.2 mph 0.04 in Rain Light Rain
4:53 PM 45.0 °F 35.2 °F 42.1 °F 90% 29.59 in 8.0 mi WNW 29.9 mph 39.1 mph 0.03 in Rain Light Rain
5:53 PM 45.0 °F 36.2 °F 43.0 °F 93% 29.60 in 7.0 mi WNW 24.2 mph 42.6 mph 0.03 in Rain Light Rain
6:53 PM 45.0 °F 35.2 °F 42.1 °F 90% 29.63 in 10.0 mi WNW 29.9 mph 43.7 mph 0.02 in Rain Light Rain
7:03 PM 44.6 °F 33.9 °F 42.8 °F 93% 29.67 in 8.0 mi WNW 35.7 mph 47.2 mph 0.00 in Rain Light Rain
7:53 PM 45.0 °F 35.8 °F 42.1 °F 90% 29.66 in 6.0 mi WNW 26.5 mph 41.4 mph 0.04 in Rain Light Rain
8:24 PM 44.6 °F 35.5 °F 42.8 °F 93% 29.68 in 10.0 mi WNW 25.3 mph 36.8 mph 0.01 in Rain Light Rain
8:53 PM 45.0 °F 35.8 °F 42.1 °F 90% 29.67 in 10.0 mi WNW 26.5 mph 36.8 mph 0.02 in Rain Light Rain
9:53 PM 45.0 °F 36.0 °F 42.1 °F 90% 29.69 in 10.0 mi WNW 25.3 mph 39.1 mph 0.02 in Rain Light Rain
10:53 PM 45.0 °F 36.0 °F 42.1 °F 90% 29.68 in 10.0 mi WNW 25.3 mph 33.4 mph 0.02 in Rain Light Rain
11:53 PM 45.0 °F 35.1 °F 42.1 °F 90% 29.69 in 10.0 mi WNW 31.1 mph 41.4 mph 0.00 in Rain Light Rain